Location: La Bastide
(43.1661°N, 1.2755°E)
Time: 02:23:03
(UTC+00:00)

Cosmos 1680 Rocket - Pass Details

Date: 13 December 2025
Orbit: 755 x 777 km, 74.1° (Epoch: 17 January)

Event Time Altitude Azimuth Distance (km) Brightness Sun altitude
Rises 17:53:03 0° 348° (NNW) 3,230 6.7 -16.3°
Reaches altitude 10° 17:55:41 10° 358° (N) 2,304 5.8 -16.7°
Maximum altitude 18:00:18 31° 60° (ENE) 1,327 4.2 -17.6°
Enters shadow 18:00:35 31° 66° (ENE) 1,331 4.2 -17.6°
